OPS 4682 DEB, 29060

Orbit data source: Space-Track

OPS 4682 DEB, 29060 is space debris in LEO originally from a launch on Sat, 03 Apr 1965 UTC launched from the Air Force Western Test Range (AFWTR). Debris objects in space refer to the collection of defunct objects orbiting the Earth. Examples of debris include non-operational satellites, rocket bodies, and fragments generated from explosions, collisions, or faulty payload assembly.

Loading next visibility...
Identifier
29060, 1965-027BK
Orbit
LEO
Country
Flag of USUS
Related business
Manufacturer
Unknown
Mission
Spacecraft
Bus & Motor
Unknown
Mass
Unknown
Launch date (UTC)
1965-04-03 (61 years ago)
Launch vehicle
Unknown
Launch site
Air Force Western Test Range (AFWTR)
Object type
Payload
Rocket body
Debris
Shape & HBR
Unknown shape, 0.1 m
Radar Cross Section
Small (<0.1 m²)

Expand to show TLE details & history
Last TLE update: 1 week ago

TLE from 1 week ago
0 OPS 4682 DEB
1 29060U 65027BK  26112.97780513 -.00000060  00000-0 -24170-3 0  9994
2 29060  90.2468   9.0172 0031683 353.1802  25.6945 12.94809753456970
Epoch: 2026-04-22T23:28Z
TLE epoch observation values (Epoch: 2026-04-22T23:28:02.363Z)
Latitude
19.02854°
Longitude
165.89118°
Altitude
1,263.035 km
Speed
7.236 km/s
True Right ascension
00h 35m 43s
True Declination
18° 55' 47"
Sunlit
Object was in daylight at epoch
Visualization orbit readout
Latitude
Unknown
Longitude
Unknown
Altitude
Unknown
Speed
Unknown
Apparent Right ascension
Unknown
Apparent Declination
Unknown
Sunlit
N/A
Visualization observer readout
Local Sidereal Time
01:45:51
Azimuth
Unknown
Elevation
Unknown
Doppler factor
Unknown
Orbital elements
Apogee altitude
1,303.887 km
Perigee altitude
1,255.363 km
Semi-major axis
7,657.762 km
Eccentricity
0.00317
Inclination
90.2468°
RAAN
9.0172°
Arg. of periapsis
353.1802°
True anomaly
25.85248°
Mean anomaly
25.6945°
Eccentric anomaly
25.77343°
Mean motion
3.23885 °/min
Orbital period
111.15 mins
BSTAR
-0.0002417
Loading maneuver chart data...
Computing Atmospheric mass density...
Loading historical data...
Loading historical data...
Loading historical data...
Loading historical data...
Loading historical data...
Loading historical data...
Loading historical data...

Documentation

Showing up to 5 results
|